KUIPER-00222

Last updated on Sun Mar 15 2026 00:02:06 GMT+0000 (Coordinated Universal Time)

1 67782U 26030U 26073.56815914 .00042490 00000+0 13426-2 0 9994 2 67782 51.8810 196.2497 0017215 82.7845 277.5096 15.32255356 5832
UTC large
Height (km)
Speed (km/s)
/
Latitude / Longitude
Inclination (degrees)
Orbital Period (minutes)
Azimuth
Elevation
Range (km)
Doppler Factor

Next 0 passes for location: London (51.5072 / 0.1276)

Sorry there are no passes over London.